Regional Weather Roundup
Issued by NWS

Home | Current Version | Previous Version | Graphics & Text | Print | Product List | Glossary On
Versions: 1 2 3 4 5 6 7 8 9 10 11 12 13 14 15 16 17 18 19 20 21 22 23 24 25 26 27 28 29 30 31 32 33 34 35 36 37 38 39 40 41 42 43 44 45 46 47 48 49 50
000
ASUS45 KCYS 160510
RWRWY

WYOMING REGIONAL WEATHER ROUNDUP
NATIONAL WEATHER SERVICE CHEYENNE WY
1000 PM MST FRI DEC 15 2017

NOTE:  "FAIR" INDICATES FEW OR NO CLOUDS BELOW 12,000 FEET
WITH NO SIGNIFICANT WEATHER AND/OR OBSTRUCTIONS TO VISIBILITY.

WYZ001-160600-
YELLOWSTONE NATIONAL PARK

CITY           SKY/WX    TMP DP  RH WIND       PRES   REMARKS
LK YELLOWSTONE   N/A     18  16  92 CALM      29.94F
W YELLOWSTONE  NOT AVBL

$$
WYZ002>013-054>058-071-098>099-160600-
NORTHERN WYOMING

CITY           SKY/WX    TMP DP  RH WIND       PRES   REMARKS
JACKSON        CLOUDY    22  17  81 NE6       29.93F WCI  14
CODY           FAIR      40  15  36 VRB3      29.78R
GREYBULL       FAIR      30  18  60 W5        29.78R WCI  25
WORLAND        FAIR      27  23  85 CALM      29.75F
SHERIDAN       FAIR      34  25  69 CALM      29.73R
BUFFALO        FAIR      45  13  27 NW9       29.72R
GILLETTE       FAIR      40  21  46 CALM      29.70S
HULETT         FAIR      34  21  60 CALM      29.72R
NEWCASTLE      FAIR      30  21  69 CALM      29.74S

$$
WYZ014>020-022>026-101>103-160600-
CENTRAL WYOMING

CITY           SKY/WX    TMP DP  RH WIND       PRES   REMARKS
BIG PINEY      FAIR      19   9  65 NW6       29.94F WCI  11
PINEDALE       FAIR      19  12  73 CALM      29.94F
DUBOIS         FAIR      32   7  34 N22G29    29.82S WCI  19
LANDER         FAIR      28  20  71 SW9       29.78S WCI  19
RIVERTON       FAIR      29  17  61 S6        29.79F WCI  23
CASPER         FAIR      40  14  34 SW22      29.79F WCI  30
DOUGLAS        FAIR      43  14  31 NW8       29.74F

$$
WYZ021-027>030-104>119-160600-
SOUTHERN WYOMING

CITY           SKY/WX    TMP DP  RH WIND       PRES   REMARKS
EVANSTON       MOCLDY    35   6  29 SE6       29.96F WCI  30
FORT BRIDGER   MOCLDY    36   4  25 SW5       29.98F WCI  32
ROCK SPRINGS   FAIR      30   8  39 SW13      29.94F WCI  20
DIXON          FAIR      20  10  66 CALM      30.04S
RAWLINS        FAIR      33  15  47 SW20      29.92  WCI  21
SARATOGA       FAIR      30  12  47 S3        29.95F
LARAMIE        FAIR      34  10  37 W28       29.86F WCI  21
CHEYENNE       FAIR      47   3  16 W22       29.82S
TORRINGTON     FAIR      48   6  18 W8        29.74S
PINE BLUFFS    FAIR      37   3  23 MISG      29.79F

$$



USA.gov is the U.S. government's official web portal to all federal, state and local government web resources and services.